Roseburg, OR

2:25 AM PST on November 12, 2019 (GMT -0800)
Roseburg Regional

Weather History for KRBG - September, 2019

Change the Weather History Date:

Sunday, September 15, 2019

  Actual Average Record
Temperature  
Mean Temperature 63 °F 65 °F  
Max Temperature 69 °F 79 °F 95 °F (2008)
Min Temperature 56 °F 52 °F 43 °F (1944)
Degree Days  
Heating Degree Days 2 2  
Month to date heating degree days 4 18  
Since 1 July heating degree days 9 39  
Cooling Degree Days 0 2  
Month to date cooling degree days 70 46  
Year to date cooling degree days 673 457  
Growing Degree Days 12 (Base 50)    
Moisture  
Dew Point 56 °F    
Average Humidity 78    
Maximum Humidity 100    
Minimum Humidity 55    
Precipitation  
Precipitation 0.82 in 0.03 in 1.07 in (1963)
Month to date precipitation 1.41 0.38  
Year to date precipitation 24.18 20.03  
Sea Level Pressure  
Sea Level Pressure 29.84 in    
Wind  
Wind Speed 3 mph (NNW)    
Max Wind Speed 12 mph    
Max Gust Speed 16 mph    
Visibility 6 miles    
Events Rain    
T = Trace of Precipitation, MM = Missing Value Source: NWS Daily Summary

Daily Weather History Graph

Daily Weather History Graph

Search for Another Location

Airport or City:

Astronomy

Sep. 15, 2019 Rise Set
Actual Time 6:52 AM PDT 7:23 PM PDT
Civil Twilight 6:24 AM PDT 7:52 PM PDT
Nautical Twilight 5:50 AM PDT 8:25 PM PDT
Astronomical Twilight 5:15 AM PDT 9:00 PM PDT
Moon 8:32 PM PDT (9/15) 8:09 AM PDT (9/15)
Length of Visible Light 13h 28m
Length of Day
12h 30m
Full, 98% of the Moon is Illuminated
Sep 15
Full
Sep 21
Last Quarter
Sep 28
New
Oct 5
First Quarter
Oct 13
Full

Hourly Weather History & Observations

Time (PDT) Temp. Dew Point Humidity Pressure Visibility Wind Dir Wind Speed Gust Speed Precip Events Conditions
12:53 AM 64.9 °F 55.0 °F 70% 29.91 in 10.0 mi Calm Calm - N/A   Overcast
1:53 AM 63.0 °F 55.9 °F 78% 29.90 in 10.0 mi NNW 3.5 mph - N/A   Overcast
2:53 AM 60.1 °F 55.0 °F 83% 29.88 in 10.0 mi Calm Calm - N/A   Partly Cloudy
3:53 AM 59.0 °F 54.0 °F 83% 29.87 in 10.0 mi NNW 3.5 mph - N/A   Mostly Cloudy
4:02 AM 59.0 °F 54.0 °F 83% 29.87 in 10.0 mi Calm Calm - N/A   Mostly Cloudy
4:37 AM 59.0 °F 55.0 °F 87% 29.87 in 10.0 mi Calm Calm - N/A   Mostly Cloudy
4:53 AM 59.0 °F 54.0 °F 83% 29.86 in 10.0 mi Calm Calm - N/A   Scattered Clouds
5:53 AM 57.9 °F 53.1 °F 84% 29.86 in 10.0 mi Calm Calm - N/A   Clear
6:53 AM 57.0 °F 53.1 °F 87% 29.85 in 10.0 mi South 4.6 mph - N/A   Clear
7:53 AM 57.9 °F 53.1 °F 84% 29.85 in 10.0 mi ESE 3.5 mph - N/A   Scattered Clouds
8:53 AM 63.0 °F 54.0 °F 72% 29.83 in 10.0 mi SSE 5.8 mph - N/A   Overcast
9:53 AM 66.0 °F 52.0 °F 60% 29.82 in 10.0 mi South 3.5 mph - N/A   Mostly Cloudy
10:53 AM 68.0 °F 51.1 °F 55% 29.81 in 10.0 mi SW 5.8 mph - N/A   Overcast
11:53 AM 64.0 °F 55.0 °F 73% 29.83 in 4.0 mi NW 10.4 mph - 0.00 in Rain Light Rain
12:37 PM 61.0 °F 59.0 °F 93% 29.84 in 1.2 mi NNE 8.1 mph - 0.14 in Rain Rain
12:53 PM 61.0 °F 57.9 °F 90% 29.84 in 1.2 mi Calm Calm - 0.19 in Rain Rain
1:00 PM 61.0 °F 57.9 °F 90% 29.84 in 1.8 mi Calm Calm - 0.01 in Rain Light Rain
1:05 PM 61.0 °F 57.9 °F 90% 29.84 in 1.8 mi Calm Calm - 0.02 in Rain Light Rain
1:19 PM 61.0 °F 59.0 °F 93% 29.84 in 2.0 mi NNE 3.5 mph - 0.04 in Rain Light Rain
1:38 PM 61.0 °F 57.9 °F 90% 29.84 in 2.0 mi North 5.8 mph - 0.07 in Rain Light Rain
1:48 PM 60.8 °F 57.2 °F 88% 29.84 in 2.0 mi NNW 6.9 mph - 0.09 in Rain Rain
1:53 PM 60.1 °F 57.9 °F 93% 29.83 in 2.0 mi North 9.2 mph - 0.10 in Rain Rain
2:40 PM 59.0 °F 57.0 °F 93% 29.83 in 3.0 mi NW 5.8 mph - 0.11 in Rain Rain
2:53 PM 59.0 °F 57.0 °F 93% 29.83 in 3.0 mi Variable 3.5 mph - 0.13 in Rain Light Rain
3:22 PM 60.1 °F 57.0 °F 90% 29.83 in 4.0 mi NNW 5.8 mph - 0.04 in Rain Light Rain
3:53 PM 59.0 °F 55.9 °F 90% 29.83 in 5.0 mi NNW 4.6 mph - 0.08 in Rain Light Rain
4:11 PM 59.0 °F 57.9 °F 96% 29.83 in 2.5 mi North 3.5 mph - 0.04 in Rain Rain
4:29 PM 59.0 °F 59.0 °F 100% 29.82 in 3.0 mi Calm Calm - 0.09 in Rain Rain
4:53 PM 59.0 °F 59.0 °F 100% 29.82 in 4.0 mi Calm Calm - 0.13 in Rain Rain
5:02 PM 59.0 °F 59.0 °F 100% 29.82 in 3.0 mi Calm Calm - 0.02 in Rain Light Rain
5:25 PM 59.0 °F - N/A% 29.82 in 4.0 mi WNW 3.5 mph - 0.03 in Rain Light Rain
5:53 PM 59.0 °F - N/A% 29.82 in 8.0 mi Calm Calm - 0.05 in Rain Light Rain
6:34 PM 60.1 °F - N/A% 29.83 in 5.0 mi Calm Calm - 0.02 in Rain Light Rain
6:46 PM 59.0 °F - N/A% 29.82 in 5.0 mi Calm Calm - 0.03 in Rain Light Rain
6:53 PM 59.0 °F - N/A% 29.83 in 5.0 mi Calm Calm - 0.03 in Rain Light Rain
7:02 PM 59.0 °F - N/A% 29.82 in 4.0 mi Calm Calm - 0.01 in Rain Light Rain
7:10 PM 59.0 °F - N/A% 29.83 in 4.0 mi Calm Calm - 0.02 in Rain Light Rain
7:53 PM 59.0 °F - N/A% 29.83 in 10.0 mi Calm Calm - 0.05 in   Overcast
8:53 PM 59.0 °F - N/A% 29.83 in 10.0 mi SSE 3.5 mph - 0.00 in Rain Light Rain
9:53 PM 59.0 °F - N/A% 29.83 in 10.0 mi Calm Calm - 0.00 in   Overcast
10:53 PM 57.9 °F 57.9 °F 100% 29.83 in 10.0 mi SE 3.5 mph - N/A   Overcast
11:53 PM 57.0 °F 57.0 °F 100% 29.84 in 10.0 mi SE 3.5 mph - 0.01 in   Overcast